sat.trackr.live / text

‹ back to catalog

YAOGAN-8

NORAD 36121 · 2009-072A

PAYLOAD ACTIVE UNKNOWN

§ Identity

Operator
Country
PRC
Launch date
2009-12-15
Launch site
TAISC
Launch vehicle
Mass (kg)
RCS (m²)
3.03

External: N2YO · Heavens-Above · Gunter

§ Orbital elements

Epoch: 2026-09-04T01:44:21.910848Z

Period
110.34 min
Inclination
100.2021°
Eccentricity
0.0021238
Mean motion
13.05081199 rev/d
Perigee alt
1,226.1 km
Apogee alt
1,258.4 km
Semi-major
7,620.4 km
B*
-6.9040e-4
RAAN
127.3662°
Arg perigee
144.7498°
Mean anomaly
215.5018°
Rev number
79,896

§ Raw data

YAOGAN-81 36121U 09072A   26247.07247582 -.00000265  00000+0 -69040-3 0  99932 36121 100.2021 127.3662 0021238 144.7498 215.5018 13.05081199798969

JSON: /api/v1/satellites/36121 · /tle

For live sub-satellite position, see the globe view (requires WebGL).

§ Visibility from observer

Set your observer location to see the next 7 days of passes ≥ 10°. The values pass through the URL so the page stays shareable.

No JS? Fill the form by hand. The geolocation button needs JavaScript.